Wind_Speed
4 4 5 6 7 9 11 12 13 14 15 16 17 18 20 21 23 26 29 32 34 32 32 30 25 21 20 10 23 24 18 17 18 6 15 22 15 13 10 7 8 7 5 8 15 21 17
2 3 4 5 8 10 11 11 13 14 15 16 15 16 18 21 23 27 31 33 34 32 30 28 21 18 15 16 21 9 13 22 15 12 11 18 13 20 8 8 12 6 18 18 10 16 14
3 2 4 7 9 11 13 15 15 15 16 18 18 17 19 21 24 28 32 35 36 31 29 26 22 19 20 40 24 24 18 20 12 14 16 17 19 13 10 2 12 6 7 10 11 12 8
2 2 5 8 10 12 13 13 12 15 17 18 19 19 22 23 26 30 34 37 33 27 24 20 16 14 16 23 27 27 24 32 27 23 19 16 17 13 8 6 2 5 3 5 1 13 10
3 5 6 8 10 10 11 12 14 15 16 17 18 19 21 23 27 31 35 35 28 19 15 13 9 10 12 9 9 10 8 14 14 26 26 15 15 9 7 8 4 2 8 5 3 7 4
3 4 6 8 10 11 12 12 14 14 15 17 18 20 21 24 27 29 30 31 18 11 9 7 1 6 12 7 6 14 12 9 7 14 10 14 8 6 4 9 11 9 7 5 6 2 7
4 5 6 8 8 9 10 10 13 14 16 17 19 20 20 23 25 26 27 31 15 6 14 14 22 26 41 24 25 10 6 6 5 12 10 11 10 17 18 17 5 6 4 6 2 5 8
3 5 5 6 8 9 10 11 13 15 17 18 20 21 21 21 21 22 20 14 9 16 19 24 34 39 39 36 20 29 14 7 8 9 7 6 17 11 10 9 9 8 10 10 6 8 7
4 5 6 6 7 9 11 12 13 15 16 19 19 20 20 20 20 11 21 12 17 25 8 25 27 19 19 22 25 33 16 6 5 8 8 6 2 13 11 8 9 8 12 8 10 5 7
3 5 6 4 6 9 11 12 13 15 17 18 18 20 19 21 9 22 17 20 21 15 5 8 4 5 7 7 11 35 22 10 4 12 11 6 2 6 7 10 11 12 8 7 5 3 5
8 4 2 4 7 9 11 13 14 15 16 17 18 18 18 18 19 20 18 21 18 7 5 2 0 6 3 9 8 7 31 17 7 7 6 5 7 8 6 4 9 4 5 6 5 6 3
3 2 5 4 7 9 10 10 12 14 16 17 18 19 17 17 19 16 19 19 7 2 7 7 3 8 2 11 6 4 17 10 8 5 3 3 2 4 5 4 3 8 6 2 2 3 5
1 3 5 5 6 10 7 10 12 14 16 17 19 17 18 17 19 16 14 12 1 4 7 7 10 14 14 13 5 8 14 11 10 8 8 2 3 3 6 7 2 3 5 2 2 3 4
6 7 3 7 7 8 8 10 12 14 16 17 19 18 18 11 12 10 6 2 4 5 8 11 11 22 9 5 5 10 17 11 2 5 10 9 5 8 5 3 6 7 4 3 4 3 1
7 7 5 8 8 7 8 9 11 13 16 17 19 18 11 14 13 4 1 1 3 4 8 11 21 6 4 2 0 8 7 11 4 4 5 6 2 3 3 3 3 3 3 1 2 3 1
8 6 7 9 6 6 7 9 11 12 14 16 18 14 12 19 7 4 3 4 5 9 15 5 6 8 15 10 1 4 4 2 4 4 3 6 6 2 3 5 9 2 6 3 1 2 3
7 8 7 7 5 5 7 9 9 11 13 13 14 5 9 17 5 1 0 4 8 13 12 7 3 7 8 6 8 4 4 3 1 3 2 4 3 2 5 3 8 3 3 3 1 2 1
8 5 8 6 6 4 6 8 7 10 11 9 6 2 9 7 5 1 2 3 12 13 15 7 6 6 7 4 5 4 4 6 12 3 4 1 4 5 2 3 4 3 4 3 2 4 2
10 8 6 10 8 6 6 6 6 8 11 7 4 3 4 5 2 3 5 6 7 8 11 3 4 3 14 7 3 4 5 10 13 3 2 3 2 6 7 5 2 3 3 4 3 1 4
8 7 10 11 9 7 6 4 4 8 7 2 3 3 3 2 1 3 9 5 7 8 12 6 4 8 6 5 5 4 3 7 12 8 13 4 3 3 4 5 3 2 2 2 2 2 4
10 12 11 12 10 9 6 3 3 5 2 1 3 1 2 3 3 7 6 6 9 10 5 5 3 8 9 4 6 9 11 7 5 8 5 4 5 5 5 3 3 2 3 5 7 10 7
14 13 13 10 8 10 7 4 3 4 3 4 2 3 1 4 9 5 4 5 9 11 4 6 10 9 8 8 10 8 6 3 3 8 4 3 3 1 1 3 4 4 7 10 9 10 13
15 14 11 8 10 9 8 4 4 5 5 4 6 3 1 3 4 4 2 5 8 12 7 13 15 6 5 10 17 17 10 9 4 3 3 3 3 1 2 3 4 5 4 7 7 6 5
18 13 13 11 13 10 10 7 6 7 7 8 4 4 3 2 2 4 9 11 11 11 9 15 14 7 8 23 18 9 8 6 4 4 2 2 3 1 1 2 2 2 8 2 8 8 11
14 14 14 13 9 12 13 8 9 10 8 13 10 6 4 2 4 8 7 7 13 17 3 5 7 14 20 10 3 2 1 2 4 7 2 1 2 3 1 1 5 2 6 5 5 8 13
17 17 15 14 13 12 15 10 11 11 11 14 17 12 5 2 3 4 4 6 4 4 7 4 11 11 16 2 3 5 3 3 2 2 6 5 4 2 1 1 2 4 10 13 6 3 17
18 18 16 15 13 14 17 14 15 13 14 16 17 18 10 4 7 7 3 3 4 2 4 6 11 10 17 5 3 4 3 3 2 2 2 3 3 1 2 2 4 7 16 12 2 4 15
19 20 18 16 16 15 18 17 16 14 15 18 20 16 16 7 12 12 8 8 7 2 3 7 4 4 5 6 3 3 2 3 3 3 3 3 2 1 1 2 2 15 5 5 1 8 11
20 19 18 18 17 16 16 20 18 15 15 18 20 18 17 13 9 9 9 12 12 14 7 4 0 2 5 3 3 3 2 3 5 2 5 3 4 2 3 4 7 15 15 11 11 11 14
Wind_Direction
297 315 329 350 355 350 347 346 347 346 346 340 333 333 337 334 332 328 327 326 325 325 325 323 317 309 312 280 256 269 259 267 278 262 213 208 190 195 199 189 208 228 222 220 228 250 252
305 336 345 345 341 346 346 345 345 342 346 345 337 334 331 331 332 330 328 326 322 320 319 314 304 295 285 264 292 292 259 252 252 227 216 201 208 207 221 219 209 193 224 242 247 249 266
303 297 344 346 340 340 337 337 339 342 344 343 343 339 334 332 331 330 326 323 321 319 310 298 288 273 255 251 281 275 265 253 227 208 212 216 215 179 204 207 229 238 248 248 232 232 244
284 295 301 313 328 330 331 334 341 333 334 337 336 331 330 330 328 328 328 328 328 320 305 301 282 248 250 286 284 284 265 253 247 223 226 213 219 228 198 240 214 209 200 247 241 205 231
276 304 290 306 320 327 331 330 323 324 330 331 331 328 325 325 327 324 327 332 333 314 313 311 275 222 264 281 293 328 310 272 247 222 230 229 214 202 176 201 230 237 246 212 259 201 219
262 301 312 315 318 322 324 330 324 329 328 326 325 327 327 327 331 330 331 337 341 321 345 350 300 254 260 271 309 308 309 278 193 203 184 194 193 188 173 181 220 219 230 227 233 233 223
272 314 349 343 339 342 342 339 329 333 334 336 334 331 328 330 331 334 342 353 10 331 303 283 265 267 281 272 287 278 321 305 184 164 172 184 196 206 192 204 187 182 217 249 248 282 289
307 309 326 329 333 337 334 328 328 328 332 331 334 335 331 329 338 341 358 12 25 320 297 285 277 268 264 264 279 264 262 220 177 185 139 153 224 201 183 183 201 221 247 257 269 260 273
285 301 332 322 321 334 338 337 334 335 340 339 338 337 335 329 336 357 348 345 338 333 275 297 264 251 247 230 227 251 221 209 190 161 192 198 140 177 180 182 197 224 234 242 257 296 283
254 306 324 339 353 351 345 337 332 331 337 343 344 343 342 338 347 337 351 331 334 329 271 276 249 282 225 209 230 227 212 194 184 180 164 227 176 155 175 204 187 227 209 216 235 226 263
257 278 331 352 345 339 330 330 330 333 336 341 342 336 344 339 334 334 334 331 336 316 279 321 11 320 231 193 313 215 198 196 177 147 147 194 169 147 162 188 169 202 153 167 199 229 280
219 44 320 315 325 331 328 346 346 345 343 339 336 342 330 337 329 336 336 331 328 248 256 309 37 0 259 245 284 58 178 190 164 109 68 122 102 156 167 109 133 140 128 122 168 198 245
260 280 274 305 327 324 329 340 339 340 341 340 340 341 336 322 325 330 335 341 263 226 333 337 325 321 308 280 218 167 180 173 163 162 175 125 145 125 135 104 59 151 145 161 192 202 253
260 274 267 296 304 316 321 329 334 338 340 335 342 338 342 341 331 310 332 29 230 295 322 329 320 308 285 228 183 160 160 166 107 104 149 167 184 179 170 171 171 175 186 194 218 200 244
245 267 250 278 290 313 323 322 332 337 336 335 340 347 23 355 336 286 122 141 284 349 343 320 328 319 283 326 62 133 183 168 144 161 139 147 105 88 123 133 165 165 163 43 115 225 234
255 230 261 278 282 309 320 321 332 340 330 336 342 350 9 358 353 139 73 268 285 331 344 300 324 326 325 333 329 127 162 151 180 186 178 180 114 56 134 109 38 136 129 135 130 184 240
251 218 262 275 266 304 319 321 334 335 328 337 347 14 353 0 94 27 254 263 292 303 16 326 309 292 295 335 283 124 4 79 70 171 170 134 106 109 140 191 168 148 143 91 138 236 305
243 238 264 272 273 281 311 325 335 333 339 341 358 18 338 359 5 119 251 244 304 296 305 284 286 337 289 289 292 72 105 46 346 162 90 61 107 109 100 300 160 130 129 141 170 136 258
237 251 257 271 275 261 293 321 331 331 344 340 0 318 347 18 25 331 293 276 272 306 309 288 278 319 293 279 272 54 52 337 14 66 131 178 90 126 136 113 75 112 129 122 142 185 232
239 220 251 270 267 246 273 305 310 326 330 331 4 12 1 20 326 324 327 318 322 298 299 296 289 291 287 343 40 61 50 359 359 40 47 73 60 69 109 109 135 169 169 201 168 231 294
221 243 257 269 258 241 252 283 287 305 284 179 59 92 2 323 335 322 305 317 338 355 326 316 305 344 355 347 11 40 35 40 4 353 35 69 71 73 93 128 174 226 246 272 268 252 254
230 240 244 265 253 231 234 247 254 267 215 190 136 123 292 278 306 315 353 341 344 340 303 352 359 341 18 13 17 23 1 342 320 346 37 22 109 104 81 33 77 277 281 290 271 265 252
233 244 247 260 267 224 221 224 228 242 228 200 202 192 303 304 323 323 286 333 318 349 307 328 333 325 28 350 323 295 287 290 305 342 34 43 119 82 93 23 322 290 148 354 332 310 273
241 240 252 250 258 224 213 217 225 236 245 236 217 147 149 283 289 297 312 315 308 322 310 298 347 15 344 326 314 279 272 274 302 342 341 105 91 60 56 325 59 104 307 65 359 357 346
232 238 250 244 230 232 216 220 222 226 231 233 221 211 167 266 266 298 322 298 311 314 301 304 343 338 332 331 338 300 23 113 79 27 153 108 97 92 73 25 301 37 45 1 354 340 3
228 237 248 236 245 242 219 227 224 227 228 243 226 214 191 180 240 257 314 311 313 322 335 331 341 345 360 28 3 17 42 343 13 104 53 67 66 80 100 49 285 62 333 327 295 275 0
232 237 235 239 249 240 224 230 228 225 226 230 235 234 214 201 266 237 229 326 333 350 310 304 337 344 8 5 28 22 12 318 10 18 20 57 51 98 144 234 282 349 324 312 224 357 10
230 242 235 240 255 237 231 230 224 231 219 226 232 238 234 219 261 251 252 238 260 300 324 317 350 11 347 19 1 6 3 17 313 20 3 41 29 73 132 240 300 360 16 33 28 39 40
236 239 229 240 253 243 231 224 230 233 221 228 220 232 241 232 256 281 270 264 264 257 251 337 111 17 13 358 4 309 359 4 359 44 2 59 20 332 354 359 30 55 68 45 63 72 47
Height
1518 1520 1519 1516 1515 1516 1516 1515 1513 1512 1510 1509 1507 1506 1503 1502 1499 1496 1493 1489 1486 1483 1480 1479 1477 1475 1473 1473 1460 1462 1461 1460 1461 1461 1460 1462 1465 1468 1467 1468 1471 1469 1470 1469 1469 1468 1468
1516 1518 1518 1514 1514 1513 1513 1513 1511 1510 1507 1506 1505 1503 1501 1499 1495 1492 1488 1484 1481 1477 1474 1474 1472 1472 1471 1466 1454 1454 1455 1456 1457 1458 1459 1460 1460 1463 1465 1464 1465 1463 1464 1464 1465 1464 1463
1514 1516 1517 1513 1512 1512 1512 1511 1510 1508 1504 1504 1501 1500 1498 1495 1492 1488 1484 1479 1474 1471 1468 1466 1466 1466 1463 1443 1452 1451 1452 1452 1454 1455 1455 1456 1459 1459 1460 1462 1461 1460 1462 1460 1460 1460 1458
1512 1513 1513 1513 1511 1510 1509 1509 1506 1506 1503 1501 1499 1497 1495 1492 1489 1484 1479 1474 1468 1463 1460 1460 1459 1459 1448 1446 1443 1444 1444 1443 1447 1450 1451 1453 1456 1458 1458 1458 1458 1457 1458 1456 1451 1451 1453
1508 1510 1510 1511 1509 1508 1508 1506 1506 1502 1501 1499 1496 1494 1492 1489 1486 1480 1475 1469 1463 1459 1457 1456 1455 1454 1443 1440 1438 1439 1438 1437 1438 1443 1447 1450 1453 1453 1454 1456 1458 1458 1451 1455 1452 1448 1447
1505 1506 1508 1507 1506 1504 1505 1503 1504 1501 1498 1496 1493 1491 1488 1486 1482 1477 1472 1466 1460 1457 1456 1454 1453 1455 1440 1438 1436 1436 1435 1433 1434 1436 1443 1447 1448 1448 1451 1450 1452 1452 1452 1452 1450 1444 1444
1503 1504 1504 1506 1504 1503 1503 1502 1501 1499 1497 1493 1492 1488 1485 1482 1479 1475 1470 1463 1462 1459 1456 1457 1453 1449 1436 1436 1434 1434 1433 1433 1431 1434 1435 1440 1442 1435 1441 1441 1446 1447 1448 1449 1448 1444 1445
1500 1501 1500 1503 1503 1502 1501 1501 1499 1498 1494 1492 1489 1485 1481 1479 1478 1475 1472 1471 1473 1472 1448 1445 1437 1432 1429 1432 1431 1426 1431 1431 1427 1429 1432 1438 1430 1437 1439 1442 1444 1446 1447 1448 1448 1446 1445
1498 1497 1496 1499 1501 1499 1498 1497 1497 1496 1492 1489 1485 1482 1479 1477 1476 1474 1473 1473 1472 1468 1459 1429 1422 1419 1415 1419 1420 1413 1424 1422 1422 1425 1428 1429 1429 1431 1436 1439 1444 1446 1446 1449 1449 1445 1442
1495 1494 1495 1497 1497 1496 1497 1497 1496 1494 1491 1486 1483 1480 1478 1475 1476 1473 1472 1471 1469 1465 1456 1425 1419 1414 1413 1415 1413 1406 1413 1419 1420 1421 1428 1431 1427 1430 1433 1435 1438 1446 1444 1444 1446 1448 1448
1492 1491 1494 1495 1495 1494 1496 1495 1494 1492 1488 1484 1481 1480 1478 1474 1473 1472 1471 1467 1465 1464 1453 1419 1416 1416 1413 1413 1406 1399 1406 1414 1414 1416 1422 1425 1426 1428 1433 1433 1436 1440 1441 1442 1445 1447 1449
1490 1490 1492 1494 1493 1492 1494 1492 1492 1490 1486 1483 1480 1478 1476 1474 1472 1471 1468 1465 1463 1464 1448 1422 1415 1417 1415 1411 1406 1402 1405 1410 1412 1415 1419 1423 1425 1428 1429 1435 1437 1439 1442 1445 1447 1447 1448
1488 1489 1490 1491 1489 1491 1491 1490 1490 1488 1485 1482 1479 1477 1474 1471 1470 1469 1466 1465 1465 1461 1429 1424 1420 1415 1410 1405 1399 1402 1403 1403 1405 1416 1421 1425 1426 1429 1430 1436 1440 1439 1439 1445 1450 1451 1435
1486 1487 1488 1488 1488 1489 1488 1488 1488 1485 1483 1480 1478 1475 1472 1469 1468 1466 1466 1466 1465 1437 1435 1429 1422 1415 1409 1393 1392 1395 1401 1403 1406 1407 1413 1421 1432 1427 1427 1428 1433 1437 1435 1433 1431 1435 1432
1483 1483 1485 1485 1486 1486 1485 1486 1485 1484 1481 1479 1476 1473 1470 1469 1466 1465 1467 1468 1450 1444 1445 1438 1423 1411 1405 1390 1393 1394 1398 1399 1402 1404 1409 1415 1423 1425 1426 1427 1431 1438 1437 1437 1444 1440 1439
1480 1481 1482 1483 1483 1483 1484 1484 1483 1481 1480 1477 1475 1471 1470 1469 1466 1467 1469 1465 1456 1448 1445 1441 1434 1425 1423 1408 1403 1391 1396 1400 1402 1403 1403 1410 1421 1423 1427 1428 1432 1430 1436 1440 1443 1438 1434
1477 1478 1480 1481 1480 1480 1482 1482 1481 1479 1478 1476 1474 1471 1471 1469 1469 1470 1473 1466 1458 1451 1450 1447 1439 1433 1422 1416 1408 1389 1402 1401 1402 1404 1403 1406 1411 1428 1426 1427 1430 1436 1436 1442 1441 1442 1434
1474 1476 1478 1478 1477 1478 1480 1480 1479 1478 1477 1476 1474 1474 1472 1472 1472 1471 1469 1464 1457 1448 1446 1444 1442 1435 1427 1420 1404 1397 1403 1402 1403 1401 1403 1406 1414 1423 1428 1427 1427 1430 1432 1433 1435 1438 1438
1470 1473 1475 1475 1474 1476 1478 1478 1478 1477 1476 1476 1475 1474 1473 1472 1475 1471 1467 1461 1456 1451 1444 1440 1437 1436 1431 1420 1410 1405 1406 1405 1403 1402 1405 1406 1416 1423 1432 1431 1429 1429 1432 1434 1443 1441 1436
1466 1469 1472 1472 1472 1474 1475 1476 1476 1476 1476 1476 1475 1476 1474 1474 1473 1473 1466 1459 1455 1449 1443 1439 1438 1433 1421 1414 1412 1412 1414 1411 1406 1406 1408 1408 1416 1415 1418 1425 1429 1432 1432 1432 1435 1438 1428
1463 1467 1468 1467 1468 1471 1473 1474 1475 1475 1475 1476 1476 1479 1479 1479 1472 1472 1469 1465 1458 1451 1445 1441 1437 1432 1427 1422 1419 1416 1416 1416 1414 1412 1410 1414 1422 1422 1424 1426 1428 1429 1430 1430 1432 1430 1433
1460 1463 1464 1464 1465 1468 1470 1472 1473 1473 1475 1476 1476 1477 1479 1477 1474 1472 1469 1465 1462 1456 1450 1443 1442 1438 1435 1431 1429 1428 1428 1426 1424 1416 1415 1417 1425 1426 1428 1426 1427 1427 1427 1428 1426 1424 1422
1456 1458 1460 1461 1463 1465 1467 1469 1471 1472 1474 1474 1475 1476 1478 1477 1474 1472 1470 1468 1464 1460 1450 1448 1445 1439 1435 1436 1434 1432 1433 1429 1427 1425 1422 1422 1425 1427 1429 1430 1428 1428 1426 1425 1423 1419 1418
1452 1454 1456 1458 1459 1462 1464 1466 1468 1470 1472 1474 1475 1476 1478 1478 1476 1472 1469 1468 1465 1462 1459 1449 1445 1443 1442 1438 1432 1430 1430 1428 1428 1427 1427 1428 1427 1429 1431 1430 1437 1426 1424 1424 1422 1419 1419
1447 1450 1452 1454 1456 1458 1461 1463 1465 1468 1470 1471 1473 1474 1476 1479 1476 1471 1469 1466 1462 1459 1457 1453 1449 1447 1443 1437 1436 1429 1429 1427 1430 1432 1429 1428 1429 1434 1434 1434 1429 1424 1429 1431 1428 1423 1424
1442 1445 1447 1450 1452 1455 1457 1460 1463 1465 1467 1468 1469 1472 1474 1477 1473 1471 1470 1467 1465 1462 1457 1455 1451 1448 1444 1442 1439 1434 1434 1431 1429 1430 1433 1431 1431 1432 1439 1439 1439 1433 1432 1430 1428 1422 1430
1437 1440 1443 1446 1448 1450 1453 1456 1459 1462 1464 1465 1467 1469 1472 1473 1469 1470 1470 1468 1467 1465 1463 1459 1455 1450 1447 1446 1441 1441 1437 1437 1435 1431 1433 1434 1438 1439 1441 1439 1432 1438 1432 1427 1425 1437 1437
1431 1435 1439 1441 1443 1445 1448 1451 1455 1457 1460 1462 1464 1466 1469 1469 1467 1467 1467 1467 1467 1467 1466 1461 1458 1456 1454 1450 1449 1448 1445 1443 1441 1438 1436 1435 1438 1442 1440 1440 1440 1440 1432 1434 1445 1444 1442
1427 1430 1434 1436 1438 1440 1443 1447 1450 1453 1456 1458 1460 1462 1465 1467 1465 1464 1464 1463 1464 1465 1467 1465 1465 1464 1463 1460 1458 1454 1451 1450 1449 1440 1441 1441 1447 1446 1445 1445 1447 1444 1446 1448 1446 1446 1446